Simultaneous Nadir Overpasses (SNOs) Predictions

Prediction of SNOs between AQUA and NOAA-19 Satellite Orbit:

Table of predicted SNOs for the next 14.0 days since TLE Epoch: 5/17/2019
Index Date (AQUA) Time (AQUA) Lat,Lon (AQUA) SZA (AQUA ) Date (NOAA-19) Time (NOAA-19) Lat,Lon (NOAA-19) SZA (NOAA-19 ) Distance(km) Time Diff (sec)
1 05/18/2019 09:28:52 80.44, 3.35 62.57 05/18/2019 09:28:39 80.44, 3.43 62.56 1.50 13
2 05/20/2019 15:02:34 -80.44, 99.94 117.91 05/20/2019 15:02:05 -80.43, 100.00 117.91 1.52 29
3 05/20/2019 15:52:01 80.43, -92.34 62.07 05/20/2019 15:53:05 80.45, -92.47 62.07 2.77 64
4 05/22/2019 20:36:17 80.43,-163.35 61.62 05/22/2019 20:35:31 80.44,-163.19 61.63 3.27 46
5 05/22/2019 21:25:43 -80.43, 4.25 118.38 05/22/2019 21:26:31 -80.45, 4.29 118.39 1.99 48
6 05/25/2019 02:09:59 -80.42, -66.75 118.80 05/25/2019 02:08:58 -80.43, -66.58 118.78 3.24 61
7 05/25/2019 02:59:26 80.42, 100.90 61.20 05/25/2019 02:59:57 80.44, 100.87 61.20 2.01 31
8 05/27/2019 08:33:09 -80.45,-162.80 119.14 05/27/2019 08:33:25 -80.43,-162.67 119.18 3.45 16




NCC Satellite Simultaneous Nadir Overpasses (SNOs) Prediction Service
